Regional Weather Roundup
Issued by NWS

Home | Current Version | Previous Version | Graphics & Text | Print | Product List | Glossary Off
Versions: 1 2 3 4 5 6 7 8 9 10 11 12 13 14 15 16 17 18 19 20 21 22 23 24 25 26 27 28 29 30 31 32 33 34 35 36 37 38 39 40 41 42 43 44 45 46 47 48 49 50

000
ASUS43 KDTX 242201
RWRMI
MICHIGAN HOURLY REGIONAL WEATHER ROUNDUP
NATIONAL WEATHER SERVICE DETROIT/PONTIAC MI
500 PM EST TUE JAN 24 2017

NOTE: "FAIR" INDICATES FEW OR NO CLOUDS BELOW 12,000 FEET WITH NO
SIGNIFICANT WEATHER AND/OR OBSTRUCTION TO VISIBILITY.

MIZ047>049-052>055-059>063-066>070-074>076-081>083-242300-
SOUTHEAST LOWER MICHIGAN

CITY           SKY/WX    TMP DP  RH WIND       PRES   REMARKS
ADRIAN         CLOUDY    39  35  86 NW8       29.80R WCI  33
ALMA           CLOUDY    41  35  79 W10       29.78S
ANN ARBOR      CLOUDY    38  35  89 W9        29.78R WCI  31
BAD AXE        CLOUDY    36  36  99 NW6       29.75R WCI  31
CARO           CLOUDY    38  37  95 W6        29.75R FOG     WCI  33
DETROIT CITY   CLOUDY    40  37  89 NW9       29.77R WCI  34
DETROIT        CLOUDY    40  37  89 W12       29.79R FOG     WCI  33
FLINT          CLOUDY    38  35  89 W10       29.78R WCI  31
GROSSE ILE     CLOUDY    40  36  85 W12G17    29.77R WCI  33
HILLSDALE      CLOUDY    37  34  87 NW8       29.78S WCI  31
HOWELL         CLOUDY    37  33  87 W12       29.79R WCI  29

CITY           SKY/WX    TMP DP  RH WIND       PRES   REMARKS
JACKSON        CLOUDY    38  33  82 NW13      29.80R WCI  30
LAMBERTVILLE   CLOUDY    41  36  80 NW6       29.79S
LANSING        CLOUDY    39  33  79 W6        29.80S WCI  35
LAPEER         CLOUDY    37  37  99 NW5       29.76R FOG     WCI  34
MASON          CLOUDY    37  35  91 W7        29.79S WCI  32
MONROE         CLOUDY    39  36  87 NW12      29.78R WCI  32
MT. CLEMENS    CLOUDY    39  39 100 W7        29.74R WCI  34
PONTIAC        DRIZZLE   36  34  92 W13       29.76R FOG     WCI  27
PORT HOPE        N/A     35  34  96 NW8       29.72R WCI  29
PORT HURON     CLOUDY    37  36  93 NW6       29.75R WCI  33
TRI CITIES     CLOUDY    39  36  89 NW5       29.77R
MIDLAND        CLOUDY    39  35  84 NW5       29.77R
TROY           CLOUDY    39  36  87 W10G16    29.79R WCI  33
SAGINAW HB     CLOUDY    37  34  87 W7        29.77R WCI  32
$$
MIZ043>046-050>051-056>058-064>065-071>073-077>080-242300-
SOUTHWEST LOWER MICHIGAN

CITY           SKY/WX    TMP DP  RH WIND       PRES   REMARKS
BATTLE CREEK   CLOUDY    39  35  86 NW9       29.82R WCI  33
BENTON HARBOR  CLOUDY    38  34  85 W10       29.85R WCI  31
BIG RAPIDS     CLOUDY    37  35  92 W8        29.78R WCI  31
COLDWATER      CLOUDY    39  37  90 NW9       29.81R WCI  33
FREMONT        CLOUDY    38  37  94 W6        29.80S WCI  34
HOLLAND        CLOUDY    39  35  86 W5        29.83R
GRAND RAPIDS   CLOUDY    40  34  79 W9        29.80S WCI  34
IONIA          CLOUDY    39  34  81 W5        29.79S
KALAMAZOO      CLOUDY    39  33  79 W9        29.82R WCI  33
LUDINGTON      CLOUDY    38  36  94 NW6       29.81R WCI  33
MARSHALL       CLOUDY    39  34  82 NW7       29.80R WCI  34
MOUNT PLEASANT CLOUDY    40  35  84 W7        29.77S WCI  35
MUSKEGON       LGT RAIN  39  36  89 W5        29.83R FOG
SOUTH HAVEN    CLOUDY    38  36  94 W3        29.84R
$$
MIZ016>042-242300-
NORTHERN LOWER MICHIGAN

CITY           SKY/WX    TMP DP  RH WIND       PRES   REMARKS
ALPENA         CLOUDY    36  34  92 W3        29.75R
BEAVER ISLAND  CLOUDY    35  35 100 CALM      29.78S
BELLAIRE       CLOUDY    35  35 100 CALM      29.79R
CADILLAC       CLOUDY    35  34  96 NW5       29.76R FOG     WCI  31
CHARLEVOIX     CLOUDY    34  34 100 NW5       29.81R FOG     WCI  30
FRANKFORT      CLOUDY    37  36  98 NW5       29.80R FOG     WCI  33
GAYLORD        CLOUDY    35  31  85 VRB7      29.74R FOG     WCI  29
GRAYLING       CLOUDY    36  34  94 W3        29.76R
HARBOR SPRINGS CLOUDY    35  33  95 CALM      29.77R
HOUGHTON LAKE  CLOUDY    35  34  96 NW8       29.76R FOG     WCI  29
MANISTEE       CLOUDY    38  35  89 NW7       29.81R WCI  33
OSCODA         CLOUDY    37  36  96 CALM      29.74R
PELLSTON       LGT RAIN  34  32  92 NW6       29.77S WCI  29
ROGERS CITY    CLOUDY    34  33  97 NW5       29.76S WCI  29
TRAVERSE CITY  DRIZZLE   37  35  92 NW7       29.78R FOG     WCI  32
$$
MIZ007>008-015-242300-
EASTERN UPPER MICHIGAN

CITY           SKY/WX    TMP DP  RH WIND       PRES   REMARKS
KINROSS        CLOUDY    34  33  96 NW6       29.76S WCI  29
MACKINAC ISLAN CLOUDY    33  33 100 CALM      29.76S FOG
NEWBERRY       FOG       34  33  96 CALM      29.76S VSB 1
S. S. MARIE    CLOUDY    36  33  89 W7        29.75R WCI  30
MUNISING         N/A     35  34  96 NW10      29.80R WCI  27
$$
MIZ004>006-011>014-085-242300-
CENTRAL UPPER MICHIGAN

CITY           SKY/WX    TMP DP  RH WIND       PRES   REMARKS
MANISTIQUE     CLOUDY    35  34  97 NW5       29.78R FOG     WCI  31
ESCANABA       CLOUDY    38  36  92 CALM      29.82R
$$
MIZ001>003-009>011-084-242300-
WESTERN UPPER MICHIGAN

CITY           SKY/WX    TMP DP  RH WIND       PRES   REMARKS
IRON MOUNTAIN  CLOUDY    37  31  78 W5        29.79R WCI  33
HOUGHTON       CLOUDY    34  32  92 NW8       29.79R FOG     WCI  27
COPPER HARBOR    N/A     36  34  92 N7        29.80R WCI  30
IRONWOOD       MIX PCPN  32  28  85 NW3       29.82S
$$

ABBREVIATIONS USED IN REMARKS
   TC - TEMPERATURE IN CELSIUS
  WCI - WIND CHILL INDEX
   HX - HEAT INDEX
  VSB - VISIBILITY




USA.gov is the U.S. government's official web portal to all federal, state and local government web resources and services.